FDX265 LIMJ-LOWL

Flight info

Callsign FDX265
Flight time 0h 59m
Altitude 34000
Route LAGEN DCT IBNAN DCT LEDKO DCT MALUG DCT NUBRA NUBRA2K
Aircraft B738/M-SDE2E3FGHIRWXY/LB1

Departure

Time 2026-05-04 18:07
Airport Genoa Cristoforo Colombo Airport (LIMJ)

Arrival

Time 2026-05-04 19:07
Airport Linz-Hörsching Airport (LOWL)
Time Latitude Longitude Altitude Speed Heading
2026-05-04 17:39 44.41536 8.84652 19 ft 0 kts 323°
2026-05-04 17:58 44.41525 8.84664 19 ft 2 kts 323°
2026-05-04 17:59 44.41512 8.84678 20 ft 2 kts 323°
2026-05-04 17:59 44.41499 8.84691 20 ft 2 kts 323°
2026-05-04 17:59 44.41480 8.84726 19 ft 1 kts 244°
2026-05-04 18:00 44.41485 8.84735 19 ft 1 kts 229°
2026-05-04 18:01 44.41479 8.84725 19 ft 6 kts 233°
2026-05-04 18:02 44.41398 8.84725 19 ft 10 kts 110°
2026-05-04 18:02 44.41376 8.84834 19 ft 12 kts 103°
2026-05-04 18:02 44.41356 8.84947 22 ft 12 kts 104°
2026-05-04 18:02 44.41336 8.85060 19 ft 13 kts 105°
2026-05-04 18:03 44.41311 8.85188 21 ft 14 kts 104°
2026-05-04 18:03 44.41248 8.85278 21 ft 13 kts 169°
2026-05-04 18:03 44.41159 8.85256 20 ft 13 kts 195°
2026-05-04 18:03 44.41076 8.85214 20 ft 13 kts 216°
2026-05-04 18:04 44.41001 8.85216 17 ft 13 kts 124°
2026-05-04 18:04 44.40971 8.85336 18 ft 14 kts 105°
2026-05-04 18:04 44.40901 8.85689 22 ft 22 kts 105°
2026-05-04 18:05 44.40861 8.85894 22 ft 21 kts 104°
2026-05-04 18:05 44.40874 8.86039 21 ft 13 kts 92°
2026-05-04 18:05 44.40836 8.86059 21 ft 3 kts 225°
2026-05-04 18:05 44.40836 8.86024 21 ft 5 kts 281°
2026-05-04 18:06 44.40846 8.85974 24 ft 22 kts 285°
2026-05-04 18:06 44.40954 8.85419 19 ft 95 kts 285°
2026-05-04 18:06 44.41188 8.84229 21 ft 156 kts 285°
2026-05-04 18:07 44.41515 8.82584 256 ft 188 kts 284°
2026-05-04 18:07 44.41862 8.80793 1054 ft 188 kts 281°
2026-05-04 18:07 44.41839 8.79017 1870 ft 185 kts 247°
2026-05-04 18:07 44.40995 8.77731 2408 ft 184 kts 198°
2026-05-04 18:08 44.39755 8.77647 3115 ft 177 kts 165°
2026-05-04 18:08 44.38612 8.78344 3738 ft 180 kts 148°
2026-05-04 18:08 44.37606 8.79265 4683 ft 168 kts 149°
2026-05-04 18:08 44.36558 8.80029 5377 ft 175 kts 151°
2026-05-04 18:09 44.34254 8.81357 6591 ft 188 kts 172°
2026-05-04 18:09 44.31670 8.81308 7843 ft 187 kts 180°
2026-05-04 18:10 44.30373 8.81229 8441 ft 186 kts 181°
2026-05-04 18:10 44.29042 8.81151 8837 ft 197 kts 181°
2026-05-04 18:10 44.27647 8.81073 9285 ft 203 kts 181°
2026-05-04 18:10 44.26227 8.80996 9818 ft 205 kts 181°
2026-05-04 18:11 44.24791 8.80918 10059 ft 206 kts 182°
2026-05-04 18:11 44.23364 8.80844 10091 ft 205 kts 181°
2026-05-04 18:11 44.21925 8.80774 10159 ft 207 kts 181°
2026-05-04 18:11 44.20482 8.80704 10569 ft 211 kts 182°
2026-05-04 18:12 44.19010 8.80632 11070 ft 212 kts 182°
2026-05-04 18:12 44.17534 8.80560 11601 ft 213 kts 183°
2026-05-04 18:12 44.16043 8.80415 12030 ft 219 kts 196°
2026-05-04 18:12 44.14748 8.79227 12185 ft 237 kts 233°
2026-05-04 18:13 44.14120 8.77024 12339 ft 260 kts 262°
2026-05-04 18:13 44.14300 8.74401 12511 ft 288 kts 287°
2026-05-04 18:13 44.17164 8.69963 12906 ft 340 kts 325°
2026-05-04 18:14 44.19250 8.68188 13079 ft 362 kts 327°
2026-05-04 18:14 44.21426 8.66381 13449 ft 374 kts 327°
2026-05-04 18:14 44.23866 8.64917 14062 ft 384 kts 347°
2026-05-04 18:15 44.29118 8.66222 15344 ft 397 kts 27°
2026-05-04 18:15 44.33208 8.71405 16476 ft 407 kts 50°
2026-05-04 18:15 44.35020 8.74476 17026 ft 412 kts 51°
2026-05-04 18:16 44.36822 8.77618 17592 ft 416 kts 51°
2026-05-04 18:16 44.38641 8.80795 18152 ft 421 kts 51°
2026-05-04 18:16 44.40491 8.84003 18627 ft 426 kts 51°
2026-05-04 18:17 44.44258 8.90459 19695 ft 430 kts 51°
2026-05-04 18:17 44.46163 8.93701 20236 ft 432 kts 51°
2026-05-04 18:17 44.50007 9.00233 21261 ft 437 kts 50°
2026-05-04 18:18 44.51945 9.03529 21734 ft 439 kts 51°
2026-05-04 18:18 44.53894 9.06847 22223 ft 442 kts 51°
2026-05-04 18:18 44.55852 9.10184 22677 ft 444 kts 51°
2026-05-04 18:18 44.57819 9.13541 23154 ft 447 kts 51°
2026-05-04 18:19 44.61779 9.20315 23988 ft 452 kts 51°
2026-05-04 18:19 44.63780 9.23742 24320 ft 455 kts 51°
2026-05-04 18:19 44.65793 9.27195 24644 ft 459 kts 51°
2026-05-04 18:20 44.67819 9.30675 24948 ft 462 kts 51°
2026-05-04 18:20 44.69858 9.34181 25270 ft 465 kts 51°
2026-05-04 18:20 44.71908 9.37711 25599 ft 467 kts 51°
2026-05-04 18:20 44.73968 9.41262 25899 ft 470 kts 50°
2026-05-04 18:21 44.76041 9.44840 26200 ft 473 kts 50°
2026-05-04 18:21 44.78123 9.48439 26502 ft 476 kts 50°
2026-05-04 18:21 44.80219 9.52067 26792 ft 479 kts 50°
2026-05-04 18:21 44.82325 9.55716 27107 ft 481 kts 50°
2026-05-04 18:22 44.84436 9.59375 27403 ft 483 kts 50°
2026-05-04 18:22 44.86629 9.62974 27717 ft 484 kts 47°
2026-05-04 18:22 44.88905 9.66487 28059 ft 485 kts 46°
2026-05-04 18:22 44.91216 9.69966 28355 ft 487 kts 46°
2026-05-04 18:23 44.93545 9.73454 28631 ft 489 kts 46°
2026-05-04 18:23 44.95879 9.76969 28901 ft 491 kts 46°
2026-05-04 18:23 44.98211 9.80509 29198 ft 493 kts 46°
2026-05-04 18:23 45.00533 9.84063 29574 ft 492 kts 46°
2026-05-04 18:24 45.02846 9.87623 30018 ft 490 kts 46°
2026-05-04 18:24 45.05141 9.91171 30413 ft 488 kts 46°
2026-05-04 18:24 45.07427 9.94712 30739 ft 487 kts 46°
2026-05-04 18:24 45.09712 9.98256 31026 ft 487 kts 46°
2026-05-04 18:25 45.11995 10.01801 31321 ft 487 kts 46°
2026-05-04 18:25 45.14274 10.05343 31643 ft 486 kts 46°
2026-05-04 18:25 45.16547 10.08880 31959 ft 485 kts 46°
2026-05-04 18:25 45.18818 10.12416 32247 ft 485 kts 46°
2026-05-04 18:26 45.21086 10.15954 32519 ft 485 kts 46°
2026-05-04 18:26 45.23355 10.19497 32812 ft 484 kts 46°
2026-05-04 18:26 45.25616 10.23031 33107 ft 484 kts 46°
2026-05-04 18:26 45.27875 10.26566 33384 ft 484 kts 46°
2026-05-04 18:27 45.30135 10.30108 33668 ft 483 kts 46°
2026-05-04 18:27 45.32387 10.33642 33948 ft 482 kts 46°
2026-05-04 18:27 45.34611 10.37137 34051 ft 485 kts 46°
2026-05-04 18:27 45.36877 10.40701 34052 ft 486 kts 46°
2026-05-04 18:28 45.41428 10.47876 34042 ft 482 kts 46°
2026-05-04 18:28 45.45866 10.54892 34052 ft 479 kts 46°
2026-05-04 18:29 45.50312 10.61938 34057 ft 477 kts 47°
2026-05-04 18:29 45.54743 10.68975 34058 ft 476 kts 47°
2026-05-04 18:30 45.61380 10.79552 34069 ft 477 kts 47°
2026-05-04 18:31 45.65582 10.86270 34074 ft 478 kts 47°
2026-05-04 18:31 45.70013 10.93371 34101 ft 479 kts 47°
2026-05-04 18:32 45.74447 11.00495 34117 ft 479 kts 47°
2026-05-04 18:32 45.78882 11.07640 34135 ft 481 kts 47°
2026-05-04 18:33 45.83324 11.14814 34132 ft 482 kts 47°
2026-05-04 18:33 45.87766 11.22008 34126 ft 482 kts 47°
2026-05-04 18:34 45.92205 11.29216 34150 ft 482 kts 47°
2026-05-04 18:34 45.96633 11.36425 34138 ft 481 kts 47°
2026-05-04 18:35 46.01053 11.43638 34144 ft 480 kts 47°
2026-05-04 18:35 46.05451 11.50835 34139 ft 478 kts 47°
2026-05-04 18:36 46.09838 11.58034 34128 ft 478 kts 47°
2026-05-04 18:36 46.14210 11.65227 34122 ft 476 kts 47°
2026-05-04 18:37 46.18570 11.72418 34099 ft 476 kts 47°
2026-05-04 18:37 46.22919 11.79610 34077 ft 475 kts 48°
2026-05-04 18:38 46.27256 11.86800 34075 ft 474 kts 48°
2026-05-04 18:38 46.31577 11.93984 34081 ft 472 kts 48°
2026-05-04 18:39 46.35913 12.01106 34069 ft 471 kts 44°
2026-05-04 18:39 46.40486 12.07398 34065 ft 471 kts 41°
2026-05-04 18:40 46.45344 12.13752 34091 ft 470 kts 41°
2026-05-04 18:40 46.50168 12.20146 34106 ft 470 kts 42°
2026-05-04 18:41 46.54960 12.26606 34104 ft 470 kts 42°
2026-05-04 18:41 46.59740 12.33098 34111 ft 470 kts 42°
2026-05-04 18:42 46.64516 12.39605 34111 ft 471 kts 43°
2026-05-04 18:42 46.69292 12.46124 34117 ft 470 kts 43°
2026-05-04 18:43 46.74058 12.52645 34109 ft 470 kts 43°
2026-05-04 18:43 46.78821 12.59177 34087 ft 470 kts 43°
2026-05-04 18:44 46.83581 12.65723 34077 ft 470 kts 43°
2026-05-04 18:44 46.88348 12.72294 33733 ft 476 kts 43°
2026-05-04 18:44 46.90763 12.75630 33469 ft 473 kts 43°
2026-05-04 18:45 46.92347 12.77821 33270 ft 472 kts 43°
2026-05-04 18:45 46.94732 12.81122 33009 ft 473 kts 43°
2026-05-04 18:45 46.97126 12.84441 32741 ft 474 kts 43°
2026-05-04 18:45 47.00331 12.88890 32378 ft 475 kts 43°
2026-05-04 18:46 47.01930 12.91111 32003 ft 480 kts 43°
2026-05-04 18:46 47.04368 12.94504 31488 ft 484 kts 43°
2026-05-04 18:46 47.06793 12.97882 30978 ft 479 kts 43°
2026-05-04 18:46 47.09200 13.01241 30489 ft 476 kts 43°
2026-05-04 18:47 47.11601 13.04595 29983 ft 477 kts 43°
2026-05-04 18:47 47.14007 13.07961 29433 ft 478 kts 43°
2026-05-04 18:47 47.16415 13.11333 28868 ft 479 kts 43°
2026-05-04 18:47 47.18827 13.14716 28344 ft 479 kts 43°
2026-05-04 18:48 47.21238 13.18101 27811 ft 479 kts 43°
2026-05-04 18:48 47.23646 13.21488 27229 ft 480 kts 43°
2026-05-04 18:48 47.26060 13.24886 26669 ft 480 kts 43°
2026-05-04 18:48 47.28470 13.28284 26113 ft 480 kts 43°
2026-05-04 18:49 47.30875 13.31679 25567 ft 479 kts 43°
2026-05-04 18:49 47.33277 13.35075 25039 ft 478 kts 43°
2026-05-04 18:49 47.35672 13.38465 24508 ft 476 kts 43°
2026-05-04 18:49 47.38052 13.41839 23998 ft 473 kts 43°
2026-05-04 18:50 47.40418 13.45198 23484 ft 469 kts 43°
2026-05-04 18:50 47.42749 13.48510 22857 ft 461 kts 44°
2026-05-04 18:50 47.45045 13.51777 22205 ft 456 kts 44°
2026-05-04 18:50 47.47314 13.55010 21524 ft 452 kts 44°
2026-05-04 18:51 47.49567 13.58224 20831 ft 448 kts 44°
2026-05-04 18:51 47.51800 13.61414 20164 ft 444 kts 44°
2026-05-04 18:51 47.54012 13.64577 19528 ft 440 kts 44°
2026-05-04 18:51 47.56208 13.67721 18872 ft 437 kts 44°
2026-05-04 18:52 47.58339 13.70777 18292 ft 434 kts 44°
2026-05-04 18:52 47.60497 13.73874 17611 ft 430 kts 44°
2026-05-04 18:52 47.62633 13.76943 17129 ft 428 kts 44°
2026-05-04 18:52 47.64785 13.80038 17003 ft 431 kts 44°
2026-05-04 18:53 47.66924 13.83121 16938 ft 426 kts 44°
2026-05-04 18:53 47.69012 13.86151 16927 ft 426 kts 45°
2026-05-04 18:53 47.71080 13.89308 16933 ft 427 kts 46°
2026-05-04 18:53 47.73144 13.92554 16914 ft 424 kts 47°
2026-05-04 18:54 47.75099 13.95654 16365 ft 411 kts 47°
2026-05-04 18:54 47.77074 13.98785 15367 ft 409 kts 47°
2026-05-04 18:54 47.78990 14.01813 14458 ft 405 kts 47°
2026-05-04 18:54 47.80929 14.04870 13866 ft 397 kts 47°
2026-05-04 18:55 47.82779 14.07781 13348 ft 387 kts 46°
2026-05-04 18:55 47.86333 14.13370 12901 ft 356 kts 46°
2026-05-04 18:55 47.87999 14.15993 12891 ft 341 kts 46°
2026-05-04 18:56 47.89620 14.18548 12626 ft 340 kts 47°
2026-05-04 18:56 47.91233 14.21094 12236 ft 334 kts 46°
2026-05-04 18:56 47.92811 14.23586 11859 ft 327 kts 46°
2026-05-04 18:56 47.94355 14.26026 11475 ft 321 kts 46°
2026-05-04 18:57 47.95873 14.28426 11097 ft 315 kts 46°
2026-05-04 18:57 47.97360 14.30782 10719 ft 308 kts 46°
2026-05-04 18:57 47.98813 14.33085 10359 ft 301 kts 46°
2026-05-04 18:57 48.00237 14.35344 9999 ft 296 kts 46°
2026-05-04 18:58 48.01632 14.37558 9628 ft 290 kts 46°
2026-05-04 18:58 48.03004 14.39738 9230 ft 286 kts 46°
2026-05-04 18:58 48.04351 14.41881 8858 ft 280 kts 46°
2026-05-04 18:58 48.05676 14.43988 8498 ft 275 kts 46°
2026-05-04 18:59 48.06976 14.46060 8145 ft 271 kts 46°
2026-05-04 18:59 48.08250 14.48091 7846 ft 263 kts 47°
2026-05-04 18:59 48.09477 14.50048 7510 ft 253 kts 47°
2026-05-04 18:59 48.10656 14.51928 7179 ft 243 kts 47°
2026-05-04 19:00 48.11969 14.53400 6806 ft 234 kts 20°
2026-05-04 19:00 48.13527 14.53870 6488 ft 224 kts
2026-05-04 19:00 48.15051 14.54108 6162 ft 216 kts
2026-05-04 19:00 48.16520 14.54316 5791 ft 209 kts
2026-05-04 19:01 48.17933 14.54507 5434 ft 204 kts
2026-05-04 19:01 48.19335 14.54685 5084 ft 200 kts
2026-05-04 19:01 48.20710 14.54795 4729 ft 197 kts 354°
2026-05-04 19:01 48.21933 14.54006 4369 ft 192 kts 315°
2026-05-04 19:02 48.22752 14.52443 4097 ft 191 kts 301°
2026-05-04 19:02 48.23359 14.50648 4061 ft 196 kts 294°
2026-05-04 19:02 48.23938 14.48789 4016 ft 196 kts 290°
2026-05-04 19:02 48.24129 14.46806 4031 ft 191 kts 271°
2026-05-04 19:03 48.24188 14.44805 3995 ft 193 kts 269°
2026-05-04 19:03 48.24171 14.42762 3783 ft 198 kts 266°
2026-05-04 19:03 48.24105 14.40701 3533 ft 197 kts 266°
2026-05-04 19:03 48.24030 14.38659 3284 ft 195 kts 266°
2026-05-04 19:04 48.23956 14.36647 3030 ft 192 kts 266°
2026-05-04 19:04 48.23884 14.34654 2791 ft 188 kts 266°
2026-05-04 19:04 48.23815 14.32746 2540 ft 179 kts 266°
2026-05-04 19:04 48.23749 14.30909 2342 ft 175 kts 266°
2026-05-04 19:05 48.23685 14.29121 2095 ft 169 kts 266°
2026-05-04 19:05 48.23624 14.27414 1878 ft 165 kts 268°
2026-05-04 19:05 48.23557 14.25688 1681 ft 163 kts 269°
2026-05-04 19:05 48.23500 14.24001 1448 ft 165 kts 268°
2026-05-04 19:06 48.23443 14.22272 1235 ft 164 kts 268°
2026-05-04 19:06 48.23385 14.20576 1028 ft 161 kts 268°
2026-05-04 19:06 48.23332 14.18994 978 ft 132 kts 266°
2026-05-04 19:06 48.23295 14.17956 985 ft 61 kts 268°
2026-05-04 19:07 48.23337 14.17859 989 ft 9 kts 40°
2026-05-04 19:07 48.23418 14.17910 980 ft 17 kts 17°
2026-05-04 19:07 48.23534 14.17958 982 ft 17 kts 15°
2026-05-04 19:07 48.23658 14.18012 984 ft 19 kts 18°
2026-05-04 19:08 48.23721 14.18165 980 ft 18 kts 86°
2026-05-04 19:08 48.23727 14.18353 981 ft 18 kts 87°
2026-05-04 19:08 48.23734 14.18535 980 ft 17 kts 87°
2026-05-04 19:08 48.23740 14.18711 989 ft 17 kts 87°
2026-05-04 19:09 48.23745 14.18880 978 ft 16 kts 88°
2026-05-04 19:09 48.23753 14.19042 982 ft 15 kts 68°
2026-05-04 19:09 48.23831 14.19076 975 ft 4 kts 359°
2026-05-04 19:09 48.23850 14.19111 979 ft 5 kts 83°
2026-05-04 19:10 48.23852 14.19158 974 ft 0 kts 88°